Flag for U.S.A. Weather past 2 weeks in Detroit, Michigan, U.S.A.

Now
79 °F

Thundershowers. Broken clouds.


Feels Like: 81 °F
Forecast: 67 / 80 °F
Wind: 5 mph from South

Location: Detroit City Airport

Current Time: Aug 30, 2015 at 6:57:39 PM

Latest Report: Aug 30, 2015 at 5:53 PM


Visibility: 10 mi

Pressure: 29.99 "Hg

Humidity: 67%

Dew point: 67 °F

Location of DetroitLocation

Historic Weather in Detroit — Graph

°F

Detroit temperature yesterday

Maximum temperature yesterday: 75 °F (at 11:53 AM)
Minimum temperature yesterday: 64 °F (at 6:53 AM)
Average temperature yesterday: 70 °F

Past Weeks' High & Low Weather Summary

 TemperatureHumidityPressure
High88 °F (Aug 17, 12:53 PM)93% (Aug 20, 1:53 AM)30.22 "Hg (Aug 20, 1:53 AM)
Low52 °F (Aug 28, 6:53 AM)33% (Aug 21, 6:53 PM)29.68 "Hg (Aug 20, 3:04 AM)
Average70 °F69%30.01 "Hg
* Reported Aug 15 4:53 PM — Aug 30 4:53 PM, Detroit, Weather by CustomWeather, © 2015

Note: Actual official high and low records may vary slightly from our data, if they occured in-between our weather recording intervals... More about our weather records

Advertising

Detroit weather history for previous 24 hours

 ConditionsComfort  
Time TempWeatherWind HumidityBarometerVisibility
4:53 PM
Sun, Aug 30
82 °FBroken clouds.10 mph63%29.99 "Hg10 mi
3:53 PM81 °FBroken clouds.8 mph65%30.01 "Hg10 mi
2:53 PM80 °FBroken clouds.3 mph62%30.03 "Hg10 mi
1:53 PM80 °FScattered clouds.8 mph64%30.03 "Hg10 mi
12:53 PM79 °FPassing clouds.10 mph67%30.06 "Hg10 mi
11:53 AM77 °FBroken clouds.7 mph71%30.08 "Hg10 mi
10:53 AM75 °FOvercast.3 mph74%30.08 "Hg10 mi
9:53 AM73 °FBroken clouds.9 mph81%30.07 "Hg8 mi
8:53 AM71 °FFog.3 mph87%30.06 "Hg6 mi
7:53 AM69 °FFog.No wind90%30.06 "Hg6 mi
6:53 AM68 °FMostly cloudy.No wind90%30.04 "Hg8 mi
5:53 AM68 °FOvercast.No wind90%30.03 "Hg8 mi
4:53 AM68 °FOvercast.No wind90%30.02 "Hg8 mi
3:53 AM68 °FFog.No wind90%30.03 "Hg6 mi
2:53 AM68 °FOvercast.3 mph93%30.03 "Hg7 mi
1:53 AM68 °FLight rain. Fog.No wind90%30.05 "Hg6 mi
12:53 AM68 °FFog.6 mph90%30.06 "Hg6 mi
11:53 PM
Sat, Aug 29
69 °FLight rain. Passing clouds.5 mph84%30.06 "Hg7 mi
10:53 PM70 °FOvercast.3 mph81%30.07 "Hg9 mi
9:53 PM70 °FPassing clouds.No wind79%30.07 "Hg10 mi
8:53 PM72 °FOvercast.No wind73%30.05 "Hg10 mi
7:53 PM73 °FScattered clouds.3 mph69%30.04 "Hg10 mi
6:53 PM73 °FPassing clouds.5 mph69%30.04 "Hg10 mi
Weather by CustomWeather, © 2015

See weather overviewHow to use our weather pages